• In Russia
  • List of Countries
  • For 7 days
  • Water Temperature
  • Satellite Maps
  • Weather Map
  • Weather Widgets
  • user-avatar
    Login

    Hourly Weather Selistea Noua

    Today, 16 August, Thursday

    Time Temperature Precipitation Wind Pressure Humidity
    00:00 +23°C° 0 mm 1 mps 747 mmHg 46%
    01:00 +22°C° 0 mm 1 mps 747 mmHg 49%
    02:00 +22°C° 0 mm 1 mps 747 mmHg 51%
    03:00 +20°C° 0 mm 2 mps 747 mmHg 56%
    04:00 +20°C° 0 mm 2 mps 747 mmHg 61%
    05:00 +19°C° 0 mm 2 mps 747 mmHg 66%
    06:00 +21°C° 0 mm 2 mps 747 mmHg 64%
    07:00 +23°C° 0 mm 2 mps 747 mmHg 62%
    08:00 +25°C° 0 mm 3 mps 748 mmHg 60%
    09:00 +27°C° 0 mm 3 mps 748 mmHg 54%
    10:00 +28°C° 0 mm 3 mps 748 mmHg 48%
    11:00 +30°C° 0 mm 3 mps 748 mmHg 43%
    12:00 +31°C° 0 mm 2 mps 748 mmHg 39%
    13:00 +32°C° 0 mm 2 mps 747 mmHg 35%
    14:00 +34°C° 0 mm 2 mps 747 mmHg 32%
    15:00 +34°C° 0 mm 2 mps 747 mmHg 32%
    16:00 +34°C° 0 mm 2 mps 747 mmHg 32%
    17:00 +34°C° 0 mm 2 mps 747 mmHg 33%
    18:00 +31°C° 0 mm 2 mps 747 mmHg 37%
    19:00 +29°C° 0 mm 2 mps 747 mmHg 41%
    20:00 +28°C° 0 mm 2 mps 747 mmHg 44%
    21:00 +27°C° 0 mm 3 mps 747 mmHg 50%
    22:00 +26°C° 0 mm 3 mps 747 mmHg 55%
    23:00 +25°C° 0 mm 3 mps 747 mmHg 60%

    Tomorrow, 17 August, Friday

    Time Temperature Precipitation Wind Pressure Humidity
    00:00 +24°C° 0 mm 3 mps 747 mmHg 64%
    01:00 +22°C° 0 mm 3 mps 747 mmHg 68%
    02:00 +22°C° 0 mm 3 mps 747 mmHg 73%
    03:00 +21°C° 0 mm 3 mps 747 mmHg 75%
    04:00 +21°C° 0 mm 3 mps 747 mmHg 77%
    05:00 +21°C° 0 mm 3 mps 747 mmHg 79%
    06:00 +22°C° 0 mm 3 mps 747 mmHg 74%
    07:00 +24°C° 0 mm 3 mps 747 mmHg 68%
    08:00 +26°C° 0 mm 4 mps 748 mmHg 62%
    09:00 +27°C° 0 mm 4 mps 748 mmHg 57%
    10:00 +29°C° 0 mm 4 mps 748 mmHg 52%
    11:00 +30°C° 0 mm 5 mps 748 mmHg 46%
    12:00 +32°C° 0 mm 5 mps 747 mmHg 43%
    13:00 +33°C° 0 mm 5 mps 747 mmHg 40%
    14:00 +34°C° 0 mm 5 mps 747 mmHg 38%
    15:00 +34°C° 0 mm 4 mps 747 mmHg 38%
    16:00 +33°C° 0 mm 4 mps 747 mmHg 38%
    17:00 +33°C° 0 mm 4 mps 747 mmHg 39%
    18:00 +30°C° 0.1 mm 4 mps 747 mmHg 45%
    19:00 +28°C° 0.1 mm 3 mps 747 mmHg 51%
    20:00 +26°C° 0.1 mm 3 mps 747 mmHg 58%
    21:00 +25°C° 0.1 mm 3 mps 747 mmHg 61%
    22:00 +24°C° 0.1 mm 3 mps 747 mmHg 64%
    23:00 +24°C° 0.1 mm 2 mps 747 mmHg 67%

    Day after tomorrow, 18 August, Saturday

    Time Temperature Precipitation Wind Pressure Humidity
    00:00 +23°C° 0 mm 2 mps 747 mmHg 68%
    01:00 +23°C° 0 mm 2 mps 747 mmHg 70%
    02:00 +22°C° 0 mm 1 mps 747 mmHg 71%
    03:00 +22°C° 0 mm 1 mps 747 mmHg 72%
    04:00 +22°C° 0 mm 1 mps 747 mmHg 73%
    05:00 +22°C° 0 mm 1 mps 747 mmHg 74%
    06:00 +23°C° 0 mm 1 mps 747 mmHg 68%
    07:00 +25°C° 0 mm 1 mps 747 mmHg 62%
    08:00 +26°C° 0 mm 2 mps 748 mmHg 56%
    09:00 +28°C° 0 mm 2 mps 748 mmHg 49%
    10:00 +30°C° 0 mm 2 mps 748 mmHg 42%
    11:00 +34°C° 0 mm 2 mps 748 mmHg 35%
    12:00 +34°C° 0 mm 2 mps 748 mmHg 33%
    13:00 +35°C° 0 mm 2 mps 747 mmHg 30%
    14:00 +36°C° 0 mm 2 mps 747 mmHg 27%
    15:00 +35°C° 0 mm 2 mps 747 mmHg 29%
    16:00 +34°C° 0 mm 2 mps 747 mmHg 31%
    17:00 +32°C° 0 mm 1 mps 747 mmHg 33%
    18:00 +31°C° 0 mm 1 mps 747 mmHg 35%
    19:00 +30°C° 0 mm 1 mps 748 mmHg 38%
    20:00 +28°C° 0 mm 1 mps 748 mmHg 40%
    21:00 +27°C° 0 mm 1 mps 748 mmHg 42%
    22:00 +27°C° 0 mm 1 mps 748 mmHg 44%
    23:00 +26°C° 0 mm 1 mps 748 mmHg 47%

    19 August, Sunday

    Time Temperature Precipitation Wind Pressure Humidity
    00:00 +25°C° 0 mm 1 mps 748 mmHg 49%
    01:00 +25°C° 0 mm 1 mps 748 mmHg 52%
    02:00 +24°C° 0 mm 1 mps 748 mmHg 54%
    03:00 +23°C° 0 mm 1 mps 748 mmHg 57%
    04:00 +23°C° 0 mm 1 mps 748 mmHg 60%
    05:00 +22°C° 0 mm 1 mps 748 mmHg 63%
    06:00 +24°C° 0 mm 1 mps 749 mmHg 60%
    07:00 +25°C° 0 mm 2 mps 749 mmHg 57%
    08:00 +27°C° 0 mm 2 mps 749 mmHg 54%
    09:00 +29°C° 0 mm 2 mps 749 mmHg 48%
    10:00 +31°C° 0 mm 1 mps 749 mmHg 42%
    11:00 +33°C° 0 mm 1 mps 749 mmHg 37%
    12:00 +33°C° 0 mm 1 mps 749 mmHg 35%
    13:00 +34°C° 0 mm 2 mps 748 mmHg 33%
    14:00 +35°C° 0 mm 2 mps 748 mmHg 31%
    15:00 +34°C° 0 mm 2 mps 748 mmHg 34%
    16:00 +34°C° 0 mm 2 mps 748 mmHg 36%
    17:00 +32°C° 0 mm 2 mps 748 mmHg 39%
    18:00 +30°C° 0.4 mm 2 mps 748 mmHg 45%
    19:00 +28°C° 0.4 mm 2 mps 748 mmHg 51%
    20:00 +27°C° 0.4 mm 1 mps 748 mmHg 57%
    21:00 +26°C° 0.1 mm 1 mps 748 mmHg 61%
    22:00 +25°C° 0.1 mm 2 mps 748 mmHg 65%
    23:00 +24°C° 0.1 mm 2 mps 748 mmHg 69%

    20 August, Monday

    Time Temperature Precipitation Wind Pressure Humidity
    00:00 +23°C° 0.3 mm 2 mps 748 mmHg 74%
    01:00 +23°C° 0.3 mm 2 mps 748 mmHg 78%
    02:00 +21°C° 0.3 mm 2 mps 748 mmHg 83%
    03:00 +21°C° 0.1 mm 2 mps 748 mmHg 85%
    04:00 +20°C° 0.1 mm 2 mps 748 mmHg 87%
    05:00 +20°C° 0.1 mm 2 mps 748 mmHg 89%
    06:00 +21°C° 0 mm 2 mps 749 mmHg 83%
    07:00 +24°C° 0 mm 3 mps 749 mmHg 78%
    08:00 +25°C° 0 mm 3 mps 749 mmHg 72%
    09:00 +27°C° 0 mm 3 mps 749 mmHg 64%
    10:00 +29°C° 0 mm 3 mps 749 mmHg 57%
    11:00 +30°C° 0 mm 3 mps 749 mmHg 49%
    12:00 +31°C° 0 mm 3 mps 749 mmHg 46%
    13:00 +31°C° 0 mm 3 mps 749 mmHg 43%
    14:00 +33°C° 0 mm 3 mps 749 mmHg 40%
    15:00 +33°C° 0 mm 3 mps 749 mmHg 41%
    16:00 +31°C° 0 mm 3 mps 749 mmHg 41%
    17:00 +31°C° 0 mm 2 mps 749 mmHg 42%
    18:00 +30°C° 0 mm 2 mps 749 mmHg 47%
    19:00 +28°C° 0 mm 2 mps 749 mmHg 51%
    20:00 +26°C° 0 mm 2 mps 749 mmHg 56%
    21:00 +26°C° 0 mm 2 mps 749 mmHg 59%
    22:00 +25°C° 0 mm 2 mps 749 mmHg 62%
    23:00 +24°C° 0 mm 2 mps 749 mmHg 66%

    21 August, Tuesday

    Time Temperature Precipitation Wind Pressure Humidity
    00:00 +23°C° 0 mm 1 mps 749 mmHg 68%
    01:00 +23°C° 0 mm 1 mps 749 mmHg 70%
    02:00 +22°C° 0 mm 1 mps 749 mmHg 72%
    03:00 +22°C° 0 mm 1 mps 749 mmHg 73%
    04:00 +22°C° 0 mm 1 mps 749 mmHg 74%
    05:00 +21°C° 0 mm 1 mps 749 mmHg 76%
    06:00 +23°C° 0 mm 1 mps 750 mmHg 70%
    07:00 +25°C° 0 mm 2 mps 750 mmHg 63%
    08:00 +26°C° 0 mm 2 mps 750 mmHg 57%
    09:00 +28°C° 0 mm 2 mps 750 mmHg 52%
    10:00 +29°C° 0 mm 2 mps 750 mmHg 47%
    11:00 +31°C° 0 mm 2 mps 750 mmHg 41%
    12:00 +32°C° 0 mm 2 mps 750 mmHg 39%
    13:00 +32°C° 0 mm 2 mps 749 mmHg 36%
    14:00 +33°C° 0 mm 1 mps 749 mmHg 34%
    15:00 +33°C° 0 mm 1 mps 749 mmHg 34%
    16:00 +33°C° 0 mm 1 mps 749 mmHg 34%
    17:00 +33°C° 0 mm 1 mps 749 mmHg 34%
    18:00 +31°C° 0 mm 1 mps 749 mmHg 38%
    19:00 +29°C° 0 mm 1 mps 749 mmHg 42%
    20:00 +27°C° 0 mm 1 mps 749 mmHg 46%
    21:00 +27°C° 0 mm 1 mps 749 mmHg 49%
    22:00 +26°C° 0 mm 2 mps 749 mmHg 51%
    23:00 +25°C° 0 mm 2 mps 749 mmHg 53%
    Show more